EW8735 Weather Reports


time (UTC)temp
F
wind
direction
speed
knots
gust
knots
rain 1hr
in
rain 24hr
in
rain mn
in
humidity
%
barometer
mb
20260902091522 58 247 0.0 0.0 0.00 0.00 0.00 64 1006.0
20260902090021 58 248 0.0 0.0 0.00 0.00 0.00 62 1006.4
20260902084524 61 248 0.0 0.0 0.00 0.00 0.00 59 1006.3
20260902083026 61 248 0.0 0.0 0.00 0.00 0.00 59 1006.0
20260902081516 61 246 0.0 0.0 0.00 0.00 0.00 60 1006.4
20260902080016 61 245 0.0 0.0 0.00 0.00 0.00 59 1006.2
20260902074518 60 245 0.0 0.0 0.00 0.00 0.00 60 1006.3
20260902073011 61 245 0.0 0.0 0.00 0.00 0.00 58 1006.0
20260902071510 62 248 0.0 0.0 0.00 0.00 0.00 57 1006.1
20260902070008 62 239 0.0 0.0 0.00 0.00 0.00 56 1006.0
20260902064505 62 241 0.0 0.0 0.00 0.00 0.00 57 1005.7
20260902063012 62 240 0.0 0.0 0.00 0.00 0.00 57 1005.6
20260902061503 62 239 0.0 0.0 0.00 0.00 0.00 55 1005.5
20260902060001 63 239 0.0 0.0 0.00 0.00 0.00 54 1005.4
20260902054501 62 235 0.0 0.0 0.00 0.00 0.00 53 1005.4
20260902053106 64 237 0.0 0.0 0.00 0.00 0.00 50 1005.3
20260902051600 65 234 0.0 0.0 0.00 0.00 0.00 48 1005.1
20260902050059 65 234 0.0 0.0 0.00 0.00 0.00 47 1005.1
20260902044601 66 234 0.0 0.0 0.00 0.00 0.00 44 1004.8
20260902043102 67 234 0.0 0.0 0.00 0.00 0.00 43 1004.6
20260902041556 68 245 0.0 0.0 0.00 0.00 0.00 44 1004.2
20260902040057 67 311 0.0 0.0 0.00 0.00 0.00 43 1003.9
20260902034605 67 316 0.0 0.0 0.00 0.00 0.00 42 1003.5
20260902033104 68 316 0.0 0.0 0.00 0.00 0.00 42 1003.3
20260902031554 68 316 0.0 0.0 0.00 0.00 0.00 41 1002.9
20260902030054 70 316 0.0 0.0 0.00 0.00 0.00 38 1002.7
20260902024553 72 316 0.0 0.0 0.00 0.00 0.00 37 1002.3
20260902023054 73 316 0.0 0.0 0.00 0.00 0.00 37 1002.0
20260902021552 75 316 0.0 0.0 0.00 0.00 0.00 38 1002.0
20260902020100 76 316 0.0 0.0 0.00 0.00 0.00 37 1001.9
20260902014552 77 316 0.0 0.0 0.00 0.00 0.00 37 1001.9
20260902013051 78 310 0.0 0.0 0.00 0.00 0.00 35 1001.8
20260902011551 79 60 0.0 0.0 0.00 0.00 0.00 34 1001.8
20260902010056 80 60 0.0 0.0 0.00 0.00 0.00 34 1001.7
20260902004551 80 310 0.0 0.0 0.00 0.00 0.00 34 1001.7
20260902003052 80 309 0.0 0.0 0.00 0.00 0.00 33 1001.5
20260902001556 81 306 0.0 0.0 0.00 0.00 0.00 32 1001.5
20260902000049 81 318 0.0 0.0 0.00 0.00 0.00 33 1001.5
20260901234559 82 318 0.0 0.0 0.00 0.00 0.00 32 1001.6
20260901233059 82 318 0.0 0.0 0.00 0.00 0.00 32 1001.6
20260901231550 82 318 0.0 0.0 0.00 0.00 0.00 31 1001.7
20260901230046 82 318 0.0 0.0 0.00 0.00 0.00 31 1001.8
20260901224545 82 316 0.0 0.0 0.00 0.00 0.00 32 1002.0
20260901223044 81 316 0.0 0.0 0.00 0.00 0.00 35 1002.1
20260901221538 80 317 0.0 0.0 0.00 0.00 0.00 35 1002.3
20260901220054 78 314 0.0 0.0 0.00 0.00 0.00 36 1002.3
20260901214530 76 314 0.0 0.0 0.00 0.00 0.00 38 1002.5
20260901213029 76 314 0.0 0.0 0.00 0.00 0.00 39 1002.7
20260901211534 76 314 0.0 0.0 0.00 0.00 0.00 40 1002.7
20260901210023 75 314 0.0 0.0 0.00 0.00 0.00 39 1002.8
20260901204524 75 317 0.0 0.0 0.00 0.00 0.00 39 1003.3
20260901203030 75 317 0.0 0.0 0.00 0.00 0.00 39 1003.4
20260901201516 74 318 0.0 0.0 0.00 0.00 0.00 37 1003.5
20260901200016 73 317 0.0 0.0 0.00 0.00 0.00 40 1003.7
20260901194512 72 317 0.0 0.0 0.00 0.00 0.00 43 1004.0
20260901193010 72 319 0.0 0.0 0.00 0.00 0.00 45 1004.1
20260901191507 71 354 0.0 0.0 0.00 0.00 0.00 42 1003.6
20260901190004 70 4 0.0 0.0 0.00 0.00 0.00 42 1003.4
20260901184508 69 4 0.0 0.0 0.00 0.00 0.00 42 1004.1
20260901183003 70 4 0.0 0.0 0.00 0.00 0.00 40 1004.1
20260901181506 70 341 0.0 0.0 0.00 0.00 0.00 42 1004.4
20260901180100 69 341 0.0 0.0 0.00 0.00 0.00 43 1004.5
20260901174557 68 341 0.0 0.0 0.00 0.00 0.00 42 1004.1
20260901173054 67 4 0.0 0.0 0.00 0.00 0.00 46 1004.3
20260901171555 67 91 0.0 0.0 0.00 0.00 0.00 46 1004.5
20260901170113 66 108 0.0 0.0 0.00 0.00 0.00 43 1004.7
20260901164551 66 85 0.0 0.0 0.00 0.00 0.00 44 1004.5
20260901163046 65 85 0.0 0.0 0.00 0.00 0.00 45 1004.4
20260901161550 65 85 0.0 0.0 0.00 0.00 0.00 46 1003.7
20260901160051 65 85 0.0 0.0 0.00 0.00 0.00 48 1004.0
20260901154547 64 41 0.0 0.0 0.00 0.00 0.00 48 1004.0
20260901153039 61 46 0.0 0.0 0.00 0.00 0.00 49 1004.1
20260901151539 59 41 0.0 0.0 0.00 0.00 0.00 51 1004.4
20260901150055 59 100 0.0 0.0 0.00 0.00 0.00 49 1004.3
20260901144540 59 34 0.0 0.0 0.00 0.00 0.00 51 1004.1
20260901143034 59 10 0.0 0.0 0.00 0.00 0.00 54 1003.8
20260901141534 58 17 0.0 0.0 0.00 0.00 0.00 52 1003.7
20260901140033 57 17 0.0 0.0 0.00 0.00 0.00 55 1003.6
20260901134535 56 19 0.0 0.0 0.00 0.00 0.00 53 1003.4
20260901133032 56 19 0.0 0.0 0.00 0.00 0.00 51 1003.3
20260901131543 56 19 0.0 0.0 0.00 0.00 0.00 51 1003.3
20260901130031 56 19 0.0 0.0 0.00 0.00 0.00 51 1003.2
20260901124530 56 19 0.0 0.0 0.00 0.00 0.00 51 1003.2
20260901123033 57 19 0.0 0.0 0.00 0.00 0.00 54 1003.2
20260901121526 57 19 0.0 0.0 0.00 0.00 0.00 51 1003.1
20260901120023 58 19 0.0 0.0 0.00 0.00 0.00 49 1003.1
20260901114536 58 19 0.0 0.0 0.00 0.00 0.00 49 1003.0
20260901113023 58 19 0.0 0.0 0.00 0.00 0.00 49 1003.1
20260901111519 58 19 0.0 0.0 0.00 0.00 0.00 52 1003.0
20260901110017 59 19 0.0 0.0 0.00 0.00 0.00 51 1003.1
20260901104515 59 19 0.0 0.0 0.00 0.00 0.00 48 1003.3
20260901103017 60 19 0.0 0.0 0.00 0.00 0.00 49 1003.5
20260901101510 61 19 0.0 0.0 0.00 0.00 0.00 47 1003.6
20260901100010 61 19 0.0 0.0 0.00 0.00 0.00 48 1003.6
20260901094517 60 19 0.0 0.0 0.00 0.00 0.00 47 1003.6
20260901093007 60 19 0.0 0.0 0.00 0.00 0.00 47 1003.8